DeKalb, IL

9:54 AM CDT on October 20, 2017 (GMT -0500)
De Kalb Taylor Municipal

Weather History for KDKB - April, 2014

Change the Weather History Date:

Wednesday, April 16, 2014

  Actual Average (KARR) Record (KARR)
Temperature  
Mean Temperature 38 °F -  
Max Temperature 50 °F 58 °F 87 °F (2002)
Min Temperature 25 °F 36 °F 26 °F (2007)
Degree Days  
Heating Degree Days 28    
Moisture  
Dew Point 26 °F    
Average Humidity 64    
Maximum Humidity 83    
Minimum Humidity 39    
Precipitation  
Precipitation 0.00 in - - ()
Sea Level Pressure  
Sea Level Pressure 30.18 in    
Wind  
Wind Speed 14 mph (SSE)    
Max Wind Speed 30 mph    
Max Gust Speed 38 mph    
Visibility 10 miles    
Events      
Averages and records for this station are not official NWS values.
T = Trace of Precipitation, MM = Missing Value Source: NWS Daily Summary

Daily Weather History Graph

Daily Weather History Graph

Search for Another Location

Airport or City:

Trip Planner

Search our weather history database for the weather conditions in past years. The results will help you decide how hot, cold, wet, or windy it might be!

Date:

Astronomy

Apr. 16, 2014 Rise Set
Actual Time 6:12 AM CDT 7:37 PM CDT
Civil Twilight 5:43 AM CDT 8:06 PM CDT
Nautical Twilight 5:08 AM CDT 8:41 PM CDT
Astronomical Twilight 4:32 AM CDT 9:18 PM CDT
Moon 9:22 PM CDT (4/16) 6:59 AM CDT (4/16)
Length of Visible Light 14h 22m
Length of Day
13h 24m
Full, 98% of the Moon is Illuminated
Apr 16
Full
Apr 22
Last Quarter
Apr 29
New
May 6
First Quarter
May 14
Full

Hourly Weather History & Observations

Time (CDT) Temp. Windchill Dew Point Humidity Pressure Visibility Wind Dir Wind Speed Gust Speed Precip Events Conditions
12:15 AM 25.9 °F 19.2 °F 20.3 °F 79% 30.20 in 10.0 mi South 5.8 mph - N/A   Clear
12:35 AM 25.7 °F 19.0 °F 19.6 °F 78% 30.20 in 10.0 mi SSE 5.8 mph - N/A   Clear
12:55 AM 26.2 °F 18.6 °F 19.4 °F 75% 30.20 in 10.0 mi SSE 6.9 mph - N/A   Clear
1:15 AM 26.1 °F 18.4 °F 19.6 °F 76% 30.20 in 10.0 mi SSE 6.9 mph - N/A   Clear
1:35 AM 26.1 °F 17.6 °F 19.8 °F 77% 30.21 in 10.0 mi SSE 8.1 mph - N/A   Clear
1:55 AM 26.4 °F 18.9 °F 20.3 °F 78% 30.21 in 10.0 mi SE 6.9 mph - N/A   Clear
2:15 AM 27.0 °F 18.0 °F 20.7 °F 77% 30.21 in 10.0 mi SSE 9.2 mph - N/A   Clear
2:35 AM 26.6 °F 18.2 °F 20.8 °F 79% 30.21 in 10.0 mi SSE 8.1 mph - N/A   Clear
2:55 AM 26.8 °F 17.7 °F 21.2 °F 79% 30.21 in 10.0 mi SSE 9.2 mph - N/A   Clear
3:15 AM 27.1 °F 18.2 °F 21.6 °F 80% 30.21 in 10.0 mi SSE 9.2 mph - N/A   Clear
3:35 AM 27.1 °F 18.2 °F 21.7 °F 80% 30.21 in 10.0 mi SSE 9.2 mph - N/A   Clear
3:55 AM 27.3 °F 18.4 °F 21.7 °F 80% 30.21 in 10.0 mi SE 9.2 mph - N/A   Clear
4:15 AM 27.7 °F 18.8 °F 21.7 °F 78% 30.21 in 10.0 mi SE 9.2 mph - N/A   Clear
4:35 AM 27.5 °F 18.6 °F 22.1 °F 80% 30.21 in 10.0 mi SE 9.2 mph - N/A   Clear
4:55 AM 27.5 °F 18.6 °F 22.1 °F 80% 30.22 in 10.0 mi SE 9.2 mph - N/A   Clear
5:15 AM 27.1 °F 18.2 °F 22.3 °F 82% 30.22 in 10.0 mi SE 9.2 mph - N/A   Clear
5:35 AM 27.3 °F 18.4 °F 22.5 °F 82% 30.22 in 10.0 mi SSE 9.2 mph - N/A   Clear
5:55 AM 27.1 °F 17.5 °F 22.6 °F 83% 30.23 in 10.0 mi SSE 10.4 mph - N/A   Clear
6:15 AM 27.7 °F 17.1 °F 23.0 °F 83% 30.24 in 10.0 mi SSE 12.7 mph - N/A   Clear
6:35 AM 27.7 °F 18.2 °F 23.0 °F 83% 30.24 in 10.0 mi SSE 10.4 mph - N/A   Clear
6:55 AM 28.0 °F 18.6 °F 23.0 °F 81% 30.25 in 10.0 mi SSE 10.4 mph - N/A   Clear
7:15 AM 28.9 °F 19.2 °F 23.7 °F 81% 30.25 in 10.0 mi SSE 11.5 mph - N/A   Clear
7:35 AM 29.8 °F 19.8 °F 24.4 °F 80% 30.25 in 10.0 mi SSE 12.7 mph - N/A   Clear
7:55 AM 30.7 °F 20.0 °F 25.0 °F 79% 30.26 in 10.0 mi SSE 15.0 mph - N/A   Clear
8:15 AM 31.6 °F 21.6 °F 25.5 °F 78% 30.27 in 10.0 mi SSE 13.8 mph - N/A   Clear
8:35 AM 32.0 °F 22.1 °F 25.5 °F 77% 30.26 in 10.0 mi SSE 13.8 mph - N/A   Clear
8:55 AM 32.9 °F 22.8 °F 26.2 °F 76% 30.26 in 10.0 mi SSE 15.0 mph - N/A   Clear
9:15 AM 33.6 °F 24.1 °F 26.6 °F 75% 30.26 in 10.0 mi SSE 13.8 mph - N/A   Clear
9:35 AM 35.4 °F 25.6 °F 27.7 °F 73% 30.26 in 10.0 mi SSE 16.1 mph - N/A   Clear
9:55 AM 36.3 °F 25.8 °F 27.1 °F 69% 30.26 in 10.0 mi SSE 19.6 mph 23.0 mph N/A   Clear
10:15 AM 37.0 °F 26.2 °F 28.0 °F 70% 30.26 in 10.0 mi SSE 21.9 mph 25.3 mph N/A   Clear
10:35 AM 38.1 °F 27.6 °F 28.9 °F 70% 30.26 in 10.0 mi SSE 21.9 mph 26.5 mph N/A   Clear
10:55 AM 39.9 °F 29.2 °F 29.1 °F 65% 30.25 in 10.0 mi South 25.3 mph 28.8 mph N/A   Clear
11:15 AM 40.6 °F 30.4 °F 28.0 °F 61% 30.25 in 10.0 mi SSE 24.2 mph 31.1 mph N/A   Clear
11:35 AM 42.4 °F 33.3 °F 29.7 °F 61% 30.24 in 10.0 mi South 21.9 mph 28.8 mph N/A   Clear
11:55 AM 42.8 °F 33.3 °F 28.9 °F 58% 30.23 in 10.0 mi SSE 24.2 mph 29.9 mph N/A   Clear
12:15 PM 43.2 °F 33.8 °F 28.8 °F 57% 30.22 in 10.0 mi SSE 24.2 mph 33.4 mph N/A   Clear
12:35 PM 44.4 °F 35.5 °F 29.5 °F 56% 30.21 in 10.0 mi SSE 24.2 mph 31.1 mph N/A   Clear
12:55 PM 45.0 °F 36.0 °F 29.7 °F 55% 30.20 in 10.0 mi SSE 25.3 mph 31.1 mph N/A   Clear
1:15 PM 45.7 °F 36.4 °F 29.3 °F 53% 30.19 in 10.0 mi SSE 28.8 mph 34.5 mph N/A   Clear
1:35 PM 46.4 °F 37.4 °F 29.5 °F 52% 30.19 in 10.0 mi SSE 28.8 mph 33.4 mph N/A   Clear
1:55 PM 47.5 °F - 30.2 °F 51% 30.18 in 10.0 mi SSE 26.5 mph 35.7 mph N/A   Clear
2:15 PM 47.5 °F - 28.9 °F 49% 30.17 in 10.0 mi South 29.9 mph 38.0 mph N/A   Clear
2:35 PM 47.8 °F - 27.9 °F 46% 30.16 in 10.0 mi SSE 27.6 mph 38.0 mph N/A   Clear
2:55 PM 48.6 °F - 29.5 °F 48% 30.15 in 10.0 mi South 27.6 mph 36.8 mph N/A   Clear
3:15 PM 49.1 °F - 28.8 °F 45% 30.15 in 10.0 mi SSE 27.6 mph 36.8 mph N/A   Clear
3:35 PM 49.6 °F - 28.9 °F 45% 30.14 in 10.0 mi SSE 27.6 mph 32.2 mph N/A   Clear
3:55 PM 50.5 °F - 29.5 °F 44% 30.13 in 10.0 mi SSE 25.3 mph 32.2 mph N/A   Clear
4:15 PM 50.2 °F - 28.4 °F 43% 30.12 in 10.0 mi SSE 25.3 mph 33.4 mph N/A   Clear
4:35 PM 50.2 °F - 27.5 °F 42% 30.11 in 10.0 mi SSE 27.6 mph 32.2 mph N/A   Clear
4:55 PM 50.9 °F - 28.0 °F 41% 30.11 in 10.0 mi SSE 25.3 mph 35.7 mph N/A   Clear
5:15 PM 50.2 °F - 26.4 °F 40% 30.10 in 10.0 mi SSE 24.2 mph 33.4 mph N/A   Clear
5:35 PM 50.2 °F - 26.1 °F 39% 30.09 in 10.0 mi SSE 28.8 mph 35.7 mph N/A   Clear
5:55 PM 49.1 °F - 26.2 °F 41% 30.09 in 10.0 mi SSE 26.5 mph 32.2 mph N/A   Clear
6:15 PM 48.6 °F - 25.5 °F 41% 30.09 in 10.0 mi SSE 24.2 mph 31.1 mph N/A   Clear
6:35 PM 47.8 °F - 26.2 °F 43% 30.09 in 10.0 mi SSE 21.9 mph 29.9 mph N/A   Clear
6:55 PM 47.5 °F - 27.3 °F 46% 30.09 in 10.0 mi SSE 17.3 mph - N/A   Clear
7:15 PM 46.2 °F 39.8 °F 28.6 °F 50% 30.09 in 10.0 mi SSE 15.0 mph - N/A   Clear
7:35 PM 45.9 °F 39.7 °F 28.0 °F 50% 30.09 in 10.0 mi SE 13.8 mph - N/A   Clear
7:55 PM 45.5 °F 38.1 °F 27.9 °F 50% 30.07 in 10.0 mi SE 18.4 mph 23.0 mph N/A   Clear
8:15 PM 44.2 °F 36.7 °F 28.4 °F 54% 30.08 in 10.0 mi SE 17.3 mph 21.9 mph N/A   Clear
8:35 PM 43.5 °F 35.8 °F 28.4 °F 55% 30.09 in 10.0 mi SE 17.3 mph 21.9 mph N/A   Clear
8:55 PM 42.8 °F 35.4 °F 28.4 °F 57% 30.10 in 10.0 mi SE 15.0 mph - N/A   Clear
9:15 PM 42.4 °F 34.7 °F 27.9 °F 56% 30.11 in 10.0 mi SE 16.1 mph - N/A   Clear
9:35 PM 41.5 °F 35.4 °F 28.4 °F 60% 30.14 in 10.0 mi SSE 10.4 mph - N/A   Clear
9:55 PM 40.5 °F 34.1 °F 28.9 °F 64% 30.15 in 10.0 mi South 10.4 mph - N/A   Clear
10:15 PM 38.8 °F 32.1 °F 29.3 °F 69% 30.14 in 10.0 mi SE 10.4 mph - N/A   Clear
10:35 PM 40.3 °F 33.0 °F 28.8 °F 63% 30.14 in 10.0 mi SSE 12.7 mph - N/A   Clear
10:55 PM 40.1 °F 32.4 °F 28.4 °F 63% 30.13 in 10.0 mi SE 13.8 mph - N/A   Clear
11:15 PM 40.1 °F 32.0 °F 28.4 °F 63% 30.13 in 10.0 mi SSE 15.0 mph - N/A   Clear
11:35 PM 40.1 °F 31.6 °F 27.9 °F 62% 30.13 in 10.0 mi SSE 16.1 mph 19.6 mph N/A   Clear
11:55 PM 39.7 °F 30.9 °F 27.5 °F 62% 30.12 in 10.0 mi SSE 17.3 mph - N/A   Clear